Time,TemperatureF,DewpointF,PressureIn,WindDirection,WindDirectionDegrees,WindSpeedMPH,WindSpeedGustMPH,Humidity,HourlyPrecipIn,Conditions,Clouds,dailyrainin,SoftwareType,DateUTC
2013-04-29 00:00:00,51.7,48.3,30.06,SE,135,6.0,6.0,88,0.00,,,0.10,Wunderground v.1.15,2013-04-29 04:00:00,
2013-04-29 00:10:00,51.8,48.4,30.05,SE,142,6.0,6.0,88,0.00,,,0.00,Wunderground v.1.15,2013-04-29 04:10:00,
2013-04-29 00:20:00,51.7,48.3,30.05,SE,132,5.0,8.0,88,0.00,,,0.00,Wunderground v.1.15,2013-04-29 04:20:00,
2013-04-29 00:30:00,51.5,48.1,30.05,SE,125,6.0,8.0,88,0.00,,,0.00,Wunderground v.1.15,2013-04-29 04:30:00,
2013-04-29 00:40:00,51.4,48.0,30.05,SE,132,6.0,7.0,88,0.00,,,0.00,Wunderground v.1.15,2013-04-29 04:40:00,
2013-04-29 00:50:00,51.3,47.9,30.04,SSE,153,7.0,10.0,88,0.00,,,0.00,Wunderground v.1.15,2013-04-29 04:50:00,
2013-04-29 01:00:00,51.4,48.0,30.04,SE,138,8.0,8.0,88,0.00,,,0.00,Wunderground v.1.15,2013-04-29 05:00:00,
2013-04-29 01:10:00,51.5,47.8,30.03,SE,145,9.0,11.0,87,0.00,,,0.00,Wunderground v.1.15,2013-04-29 05:10:00,
2013-04-29 01:19:00,51.6,47.9,30.03,SE,140,8.0,10.0,87,0.00,,,0.00,Wunderground v.1.15,2013-04-29 05:19:00,
2013-04-29 01:30:00,51.8,47.7,30.02,SSE,156,9.0,9.0,86,0.00,,,0.00,Wunderground v.1.15,2013-04-29 05:30:00,
2013-04-29 01:39:00,52.1,47.7,30.02,SSE,149,9.0,9.0,85,0.00,,,0.00,Wunderground v.1.15,2013-04-29 05:39:00,
2013-04-29 01:50:00,52.3,47.6,30.02,SSE,160,7.0,7.0,84,0.00,,,0.00,Wunderground v.1.15,2013-04-29 05:50:00,
2013-04-29 02:00:00,52.4,47.4,30.02,SSE,150,8.0,8.0,83,0.00,,,0.00,Wunderground v.1.15,2013-04-29 06:00:00,
2013-04-29 02:10:00,52.6,47.3,30.01,SSE,152,8.0,10.0,82,0.00,,,0.00,Wunderground v.1.15,2013-04-29 06:10:00,
2013-04-29 02:20:00,52.8,47.1,30.01,SSE,155,9.0,9.0,81,0.00,,,0.00,Wunderground v.1.15,2013-04-29 06:20:00,
2013-04-29 02:30:00,52.8,47.1,30.01,South,182,8.0,8.0,81,0.00,,,0.00,Wunderground v.1.15,2013-04-29 06:30:00,
2013-04-29 02:40:00,52.8,47.1,30.00,SSE,153,9.0,9.0,81,0.00,,,0.00,Wunderground v.1.15,2013-04-29 06:40:00,
2013-04-29 02:49:00,52.8,47.1,30.00,SSE,154,7.0,12.0,81,0.00,,,0.00,Wunderground v.1.15,2013-04-29 06:49:00,
2013-04-29 03:00:00,52.8,47.1,30.00,SSE,155,8.0,8.0,81,0.00,,,0.00,Wunderground v.1.15,2013-04-29 07:00:00,
2013-04-29 03:10:00,52.8,47.1,30.00,SE,125,6.0,7.0,81,0.00,,,0.00,Wunderground v.1.15,2013-04-29 07:10:00,
2013-04-29 03:20:00,52.5,47.2,30.00,SSE,148,7.0,7.0,82,0.00,,,0.00,Wunderground v.1.15,2013-04-29 07:20:00,
2013-04-29 03:30:00,51.9,47.5,30.00,SE,138,6.0,6.0,85,0.00,,,0.01,Wunderground v.1.15,2013-04-29 07:30:00,
2013-04-29 03:40:00,51.6,47.5,30.00,SSE,154,6.0,6.0,86,0.00,,,0.01,Wunderground v.1.15,2013-04-29 07:40:00,
2013-04-29 03:50:00,51.4,47.4,30.00,SE,140,6.0,7.0,86,0.00,,,0.01,Wunderground v.1.15,2013-04-29 07:50:00,
2013-04-29 04:00:00,51.4,47.4,30.00,SE,139,6.0,7.0,86,0.00,,,0.02,Wunderground v.1.15,2013-04-29 08:00:00,
2013-04-29 04:10:00,51.0,47.6,30.00,SSE,149,6.0,6.0,88,0.13,,,0.04,Wunderground v.1.15,2013-04-29 08:10:00,
2013-04-29 04:20:00,50.7,47.6,29.99,SSE,151,6.0,7.0,89,0.07,,,0.05,Wunderground v.1.15,2013-04-29 08:20:00,
2013-04-29 04:30:00,50.6,47.5,29.99,SE,134,6.0,7.0,89,0.00,,,0.05,Wunderground v.1.15,2013-04-29 08:30:00,
2013-04-29 04:40:00,50.6,47.5,29.99,SE,142,6.0,6.0,89,0.00,,,0.05,Wunderground v.1.15,2013-04-29 08:40:00,
2013-04-29 04:50:00,50.7,47.6,29.99,SE,135,6.0,6.0,89,0.00,,,0.05,Wunderground v.1.15,2013-04-29 08:50:00,
2013-04-29 05:00:00,50.6,47.5,29.98,SE,133,5.0,7.0,89,0.00,,,0.05,Wunderground v.1.15,2013-04-29 09:00:00,
2013-04-29 05:10:00,50.7,47.3,29.98,SSE,148,5.0,7.0,88,0.00,,,0.06,Wunderground v.1.15,2013-04-29 09:10:00,
2013-04-29 05:20:00,50.7,47.3,29.98,SE,128,5.0,5.0,88,0.00,,,0.06,Wunderground v.1.15,2013-04-29 09:20:00,
2013-04-29 05:30:00,50.9,46.9,29.98,SE,130,5.0,7.0,86,0.00,,,0.06,Wunderground v.1.15,2013-04-29 09:30:00,
2013-04-29 05:40:00,51.0,47.0,29.98,SE,131,5.0,5.0,86,0.00,,,0.06,Wunderground v.1.15,2013-04-29 09:40:00,
2013-04-29 05:50:00,51.0,46.6,29.99,SE,130,4.0,7.0,85,0.00,,,0.06,Wunderground v.1.15,2013-04-29 09:50:00,
2013-04-29 06:00:00,51.0,46.6,29.99,SSE,153,4.0,5.0,85,0.00,,,0.06,Wunderground v.1.15,2013-04-29 10:00:00,
2013-04-29 06:10:00,51.1,46.7,29.99,SE,146,4.0,4.0,85,0.00,,,0.06,Wunderground v.1.15,2013-04-29 10:10:00,
2013-04-29 06:20:00,51.2,46.5,29.99,SSE,153,4.0,6.0,84,0.00,,,0.06,Wunderground v.1.15,2013-04-29 10:20:00,
2013-04-29 06:30:00,51.3,46.3,29.99,SE,142,4.0,5.0,83,0.00,,,0.06,Wunderground v.1.15,2013-04-29 10:30:00,
2013-04-29 06:41:00,51.5,46.2,30.00,SE,141,4.0,10.0,82,0.00,,,0.06,Wunderground v.1.15,2013-04-29 10:41:00,
2013-04-29 06:51:00,51.7,46.4,30.00,SE,136,4.0,4.0,82,0.00,,,0.06,Wunderground v.1.15,2013-04-29 10:51:00,
2013-04-29 07:01:00,51.8,46.2,30.00,SE,132,4.0,10.0,81,0.00,,,0.06,Wunderground v.1.15,2013-04-29 11:01:00,
2013-04-29 07:11:00,52.1,46.1,30.00,SE,145,3.0,10.0,80,0.00,,,0.06,Wunderground v.1.15,2013-04-29 11:11:00,
2013-04-29 07:21:00,52.4,46.1,30.00,SSE,162,4.0,4.0,79,0.00,,,0.06,Wunderground v.1.15,2013-04-29 11:21:00,
2013-04-29 07:31:00,53.1,45.7,30.00,SSE,158,5.0,10.0,76,0.00,,,0.06,Wunderground v.1.15,2013-04-29 11:31:00,
2013-04-29 07:40:00,53.2,45.8,30.01,SE,140,6.0,10.0,76,0.00,,,0.06,Wunderground v.1.15,2013-04-29 11:40:00,
2013-04-29 07:50:00,52.3,46.6,30.01,South,177,5.0,5.0,81,0.00,,,0.07,Wunderground v.1.15,2013-04-29 11:50:00,
2013-04-29 08:00:00,51.2,46.8,30.01,SE,131,3.0,3.0,85,0.14,,,0.10,Wunderground v.1.15,2013-04-29 12:00:00,
2013-04-29 08:10:00,51.4,47.0,30.01,SSE,163,3.0,10.0,85,0.06,,,0.11,Wunderground v.1.15,2013-04-29 12:10:00,
2013-04-29 08:20:00,51.8,46.8,30.01,SE,136,3.0,10.0,83,0.00,,,0.11,Wunderground v.1.15,2013-04-29 12:20:00,
2013-04-29 08:30:00,52.2,47.5,30.01,SSE,147,3.0,10.0,84,0.00,,,0.11,Wunderground v.1.15,2013-04-29 12:30:00,
2013-04-29 08:40:00,53.0,47.3,30.01,SE,131,4.0,4.0,81,0.00,,,0.11,Wunderground v.1.15,2013-04-29 12:40:00,
2013-04-29 08:50:00,53.7,46.7,30.01,SSE,153,5.0,5.0,77,0.00,,,0.11,Wunderground v.1.15,2013-04-29 12:50:00,
2013-04-29 09:00:00,54.0,47.0,30.01,SE,140,5.0,5.0,77,0.00,,,0.11,Wunderground v.1.15,2013-04-29 13:00:00,
2013-04-29 09:10:00,54.7,47.6,30.01,SE,138,6.0,10.0,77,0.00,,,0.11,Wunderground v.1.15,2013-04-29 13:10:00,
2013-04-29 09:20:00,56.1,47.9,30.01,SE,144,7.0,7.0,74,0.00,,,0.11,Wunderground v.1.15,2013-04-29 13:20:00,
2013-04-29 09:30:00,56.5,47.9,30.00,SSE,165,7.0,10.0,73,0.00,,,0.11,Wunderground v.1.15,2013-04-29 13:30:00,
2013-04-29 09:40:00,56.7,48.1,30.01,SSE,166,7.0,7.0,73,0.00,,,0.11,Wunderground v.1.15,2013-04-29 13:40:00,
2013-04-29 09:50:00,56.8,47.9,30.01,SSE,147,6.0,10.0,72,0.00,,,0.11,Wunderground v.1.15,2013-04-29 13:50:00,
2013-04-29 10:00:00,56.7,47.0,30.01,SSE,152,8.0,10.0,70,0.00,,,0.11,Wunderground v.1.15,2013-04-29 14:00:00,
2013-04-29 10:10:00,56.3,47.0,30.01,SSE,159,7.0,10.0,71,0.00,,,0.11,Wunderground v.1.15,2013-04-29 14:10:00,
2013-04-29 10:20:00,56.1,47.2,30.01,SSE,151,6.0,6.0,72,0.00,,,0.11,Wunderground v.1.15,2013-04-29 14:20:00,
2013-04-29 10:30:00,56.4,47.9,30.01,SE,133,5.0,10.0,73,0.00,,,0.11,Wunderground v.1.15,2013-04-29 14:30:00,
2013-04-29 10:40:00,57.1,48.5,30.01,SSE,152,6.0,6.0,73,0.00,,,0.11,Wunderground v.1.15,2013-04-29 14:40:00,
2013-04-29 10:49:00,58.4,49.8,30.00,SSE,155,6.0,6.0,73,0.00,,,0.11,Wunderground v.1.15,2013-04-29 14:49:00,
2013-04-29 11:00:00,58.6,50.7,30.00,SE,124,3.0,3.0,75,0.00,,,0.11,Wunderground v.1.15,2013-04-29 15:00:00,
2013-04-29 11:10:00,59.6,50.9,30.00,South,189,4.0,10.0,73,0.00,,,0.11,Wunderground v.1.15,2013-04-29 15:10:00,
2013-04-29 11:20:00,61.0,51.5,30.00,SSE,163,6.0,10.0,71,0.00,,,0.11,Wunderground v.1.15,2013-04-29 15:20:00,
2013-04-29 11:30:00,61.3,50.6,30.00,SE,144,6.0,10.0,68,0.00,,,0.11,Wunderground v.1.15,2013-04-29 15:30:00,
2013-04-29 11:40:00,61.5,50.8,30.00,SSE,147,10.0,10.0,68,0.00,,,0.11,Wunderground v.1.15,2013-04-29 15:40:00,
2013-04-29 11:50:00,61.7,50.2,30.01,SSE,165,9.0,12.0,66,0.00,,,0.11,Wunderground v.1.15,2013-04-29 15:50:00,
2013-04-29 12:00:00,61.3,50.6,30.00,SSW,204,9.0,10.0,68,0.00,,,0.11,Wunderground v.1.15,2013-04-29 16:00:00,
2013-04-29 12:10:00,61.8,51.1,30.00,SSE,157,7.0,7.0,68,0.00,,,0.11,Wunderground v.1.15,2013-04-29 16:10:00,
2013-04-29 12:20:00,63.6,52.0,30.00,SE,144,9.0,12.0,66,0.00,,,0.11,Wunderground v.1.15,2013-04-29 16:20:00,
2013-04-29 12:30:00,63.8,51.8,30.00,SSE,159,10.0,12.0,65,0.00,,,0.11,Wunderground v.1.15,2013-04-29 16:30:00,
2013-04-29 12:40:00,64.2,53.4,30.00,SSE,150,9.0,10.0,68,0.00,,,0.11,Wunderground v.1.15,2013-04-29 16:40:00,
2013-04-29 12:49:00,62.7,50.8,30.00,SSE,156,10.0,10.0,65,0.00,,,0.11,Wunderground v.1.15,2013-04-29 16:49:00,
2013-04-29 13:00:00,62.5,51.8,30.00,SE,140,7.0,13.0,68,0.00,,,0.11,Wunderground v.1.15,2013-04-29 17:00:00,
2013-04-29 13:10:00,62.0,51.7,30.01,SSE,156,9.0,10.0,69,0.00,,,0.11,Wunderground v.1.15,2013-04-29 17:10:00,
2013-04-29 13:20:00,61.1,51.2,30.01,SSE,150,10.0,14.0,70,0.00,,,0.11,Wunderground v.1.15,2013-04-29 17:20:00,
2013-04-29 13:30:00,61.3,52.2,30.01,SSE,163,9.0,12.0,72,0.00,,,0.11,Wunderground v.1.15,2013-04-29 17:30:00,
2013-04-29 13:40:00,60.9,51.4,30.00,SSE,158,10.0,18.0,71,0.00,,,0.11,Wunderground v.1.15,2013-04-29 17:40:00,
2013-04-29 13:50:00,60.8,51.3,30.01,South,186,11.0,11.0,71,0.00,,,0.11,Wunderground v.1.15,2013-04-29 17:50:00,
2013-04-29 14:00:00,60.1,51.8,30.01,SSE,158,10.0,13.0,74,0.00,,,0.11,Wunderground v.1.15,2013-04-29 18:00:00,
2013-04-29 14:10:00,59.8,51.9,30.01,South,173,11.0,11.0,75,0.00,,,0.11,Wunderground v.1.15,2013-04-29 18:10:00,
2013-04-29 14:19:00,59.5,51.6,30.02,SSE,147,9.0,10.0,75,0.00,,,0.11,Wunderground v.1.15,2013-04-29 18:19:00,
2013-04-29 14:30:00,59.0,51.1,30.01,South,183,10.0,11.0,75,0.00,,,0.11,Wunderground v.1.15,2013-04-29 18:30:00,
2013-04-29 14:40:00,58.8,51.2,30.01,SSE,164,9.0,9.0,76,0.00,,,0.11,Wunderground v.1.15,2013-04-29 18:40:00,
2013-04-29 14:50:00,59.6,51.7,30.01,South,179,7.0,7.0,75,0.00,,,0.11,Wunderground v.1.15,2013-04-29 18:50:00,
2013-04-29 15:00:00,60.6,52.3,30.01,SE,140,8.0,11.0,74,0.00,,,0.11,Wunderground v.1.15,2013-04-29 19:00:00,
2013-04-29 15:10:00,61.4,53.0,30.01,SSW,196,8.0,8.0,74,0.00,,,0.11,Wunderground v.1.15,2013-04-29 19:10:00,
2013-04-29 15:20:00,60.6,52.3,30.00,SE,142,9.0,10.0,74,0.00,,,0.11,Wunderground v.1.15,2013-04-29 19:20:00,
2013-04-29 15:30:00,60.4,52.1,30.00,SSE,155,11.0,11.0,74,0.00,,,0.11,Wunderground v.1.15,2013-04-29 19:30:00,
2013-04-29 15:40:00,60.5,52.2,30.00,South,170,9.0,9.0,74,0.00,,,0.11,Wunderground v.1.15,2013-04-29 19:40:00,
2013-04-29 15:51:00,60.8,52.1,30.00,SSE,165,8.0,11.0,73,0.00,,,0.11,Wunderground v.1.15,2013-04-29 19:51:00,
2013-04-29 16:00:00,60.5,51.8,30.00,South,171,9.0,9.0,73,0.00,,,0.11,Wunderground v.1.15,2013-04-29 20:00:00,
2013-04-29 16:05:00,60.2,51.5,30.00,South,169,10.0,10.0,73,0.00,,,0.11,Wunderground v.1.15,2013-04-29 20:05:00,
2013-04-29 16:15:00,60.2,51.5,30.00,SSE,148,10.0,10.0,73,0.00,,,0.11,Wunderground v.1.15,2013-04-29 20:15:00,
2013-04-29 16:25:00,60.4,51.3,29.99,SSE,156,10.0,14.0,72,0.00,,,0.11,Wunderground v.1.15,2013-04-29 20:25:00,
2013-04-29 16:35:00,60.3,51.6,29.99,SE,137,10.0,17.0,73,0.00,,,0.11,Wunderground v.1.15,2013-04-29 20:35:00,
2013-04-29 16:45:00,60.0,51.3,30.00,SSE,160,11.0,17.0,73,0.00,,,0.11,Wunderground v.1.15,2013-04-29 20:45:00,
2013-04-29 16:55:00,59.7,51.4,30.00,SE,144,10.0,15.0,74,0.00,,,0.11,Wunderground v.1.15,2013-04-29 20:55:00,
2013-04-29 17:00:00,59.6,51.3,30.00,South,183,10.0,17.0,74,0.00,,,0.11,Wunderground v.1.15,2013-04-29 21:00:00,
2013-04-29 17:10:00,59.6,51.7,30.00,SSE,155,8.0,17.0,75,0.00,,,0.11,Wunderground v.1.15,2013-04-29 21:10:00,
2013-04-29 17:20:00,59.7,51.4,30.00,ESE,123,8.0,17.0,74,0.00,,,0.11,Wunderground v.1.15,2013-04-29 21:20:00,
2013-04-29 17:30:00,60.1,52.1,30.00,SSE,163,7.0,17.0,75,0.00,,,0.11,Wunderground v.1.15,2013-04-29 21:30:00,
2013-04-29 17:40:00,60.5,51.8,30.00,SSE,164,7.0,7.0,73,0.00,,,0.11,Wunderground v.1.15,2013-04-29 21:40:00,
2013-04-29 17:50:00,60.9,52.2,30.00,South,175,6.0,17.0,73,0.00,,,0.11,Wunderground v.1.15,2013-04-29 21:50:00,
2013-04-29 18:00:00,61.4,52.3,30.00,SE,144,9.0,17.0,72,0.00,,,0.11,Wunderground v.1.15,2013-04-29 22:00:00,
2013-04-29 18:10:00,62.5,52.6,30.00,SSE,150,9.0,17.0,70,0.00,,,0.11,Wunderground v.1.15,2013-04-29 22:10:00,
2013-04-29 18:20:00,62.2,52.3,30.00,SE,135,9.0,9.0,70,0.00,,,0.11,Wunderground v.1.15,2013-04-29 22:20:00,
2013-04-29 18:30:00,61.9,52.4,30.00,SSE,155,8.0,17.0,71,0.00,,,0.11,Wunderground v.1.15,2013-04-29 22:30:00,
2013-04-29 18:40:00,62.2,52.3,30.00,SE,145,9.0,17.0,70,0.00,,,0.11,Wunderground v.1.15,2013-04-29 22:40:00,
2013-04-29 18:50:00,62.2,52.3,30.00,SSE,161,10.0,10.0,70,0.00,,,0.11,Wunderground v.1.15,2013-04-29 22:50:00,
2013-04-29 18:55:00,61.9,52.4,30.01,SE,142,9.0,17.0,71,0.00,,,0.11,Wunderground v.1.15,2013-04-29 22:55:00,
2013-04-29 19:05:00,61.5,52.0,30.01,SE,146,8.0,17.0,71,0.00,,,0.11,Wunderground v.1.15,2013-04-29 23:05:00,
2013-04-29 19:15:00,61.2,52.1,30.01,SSE,153,8.0,17.0,72,0.00,,,0.11,Wunderground v.1.15,2013-04-29 23:15:00,
2013-04-29 19:20:00,61.1,52.0,30.01,South,178,7.0,17.0,72,0.00,,,0.11,Wunderground v.1.15,2013-04-29 23:20:00,
2013-04-29 19:30:00,60.9,52.2,30.01,SSE,148,6.0,17.0,73,0.00,,,0.11,Wunderground v.1.15,2013-04-29 23:30:00,
2013-04-29 19:40:00,60.4,51.7,30.01,SSE,157,7.0,17.0,73,0.00,,,0.11,Wunderground v.1.15,2013-04-29 23:40:00,
2013-04-29 19:50:00,59.8,51.5,30.02,SSE,163,7.0,7.0,74,0.00,,,0.11,Wunderground v.1.15,2013-04-29 23:50:00,
2013-04-29 20:00:00,59.5,51.2,30.02,ESE,123,6.0,17.0,74,0.00,,,0.11,Wunderground v.1.15,2013-04-30 00:00:00,
2013-04-29 20:10:00,59.4,51.5,30.02,SSE,163,7.0,7.0,75,0.00,,,0.11,Wunderground v.1.15,2013-04-30 00:10:00,
2013-04-29 20:20:00,59.1,51.2,30.02,SSE,160,6.0,6.0,75,0.00,,,0.11,Wunderground v.1.15,2013-04-30 00:20:00,
2013-04-29 20:30:00,58.8,51.2,30.03,South,171,6.0,17.0,76,0.00,,,0.11,Wunderground v.1.15,2013-04-30 00:30:00,
2013-04-29 20:40:00,58.7,51.5,30.03,SSE,161,6.0,6.0,77,0.00,,,0.11,Wunderground v.1.15,2013-04-30 00:40:00,
2013-04-29 20:45:00,58.4,51.9,30.03,SE,134,5.0,17.0,79,0.00,,,0.11,Wunderground v.1.15,2013-04-30 00:45:00,
2013-04-29 20:55:00,58.1,52.0,30.04,SE,138,6.0,17.0,80,0.00,,,0.11,Wunderground v.1.15,2013-04-30 00:55:00,
2013-04-29 21:05:00,57.9,51.8,30.04,SSE,158,5.0,17.0,80,0.00,,,0.11,Wunderground v.1.15,2013-04-30 01:05:00,
2013-04-29 21:14:00,57.8,51.7,30.04,SSE,158,6.0,17.0,80,0.00,,,0.11,Wunderground v.1.15,2013-04-30 01:14:00,
2013-04-29 21:20:00,57.8,51.7,30.04,SE,141,6.0,17.0,80,0.00,,,0.11,Wunderground v.1.15,2013-04-30 01:20:00,
2013-04-29 21:30:00,57.5,51.7,30.05,SSE,152,6.0,6.0,81,0.00,,,0.11,Wunderground v.1.15,2013-04-30 01:30:00,
2013-04-29 21:40:00,57.3,51.9,30.05,SE,136,6.0,6.0,82,0.00,,,0.11,Wunderground v.1.15,2013-04-30 01:40:00,
2013-04-29 21:45:00,57.3,51.9,30.05,SE,137,6.0,7.0,82,0.00,,,0.11,Wunderground v.1.15,2013-04-30 01:45:00,
2013-04-29 21:55:00,57.2,51.8,30.05,SSE,163,6.0,17.0,82,0.00,,,0.11,Wunderground v.1.15,2013-04-30 01:55:00,
2013-04-29 22:05:00,57.3,51.9,30.06,SSE,147,6.0,7.0,82,0.00,,,0.11,Wunderground v.1.15,2013-04-30 02:05:00,
2013-04-29 22:10:00,57.3,51.9,30.06,SE,130,6.0,17.0,82,0.00,,,0.11,Wunderground v.1.15,2013-04-30 02:10:00,
2013-04-29 22:20:00,57.2,52.1,30.06,SE,145,6.0,17.0,83,0.00,,,0.11,Wunderground v.1.15,2013-04-30 02:20:00,
2013-04-29 22:30:00,57.1,52.0,30.06,SE,139,7.0,7.0,83,0.00,,,0.11,Wunderground v.1.15,2013-04-30 02:30:00,
2013-04-29 22:40:00,57.0,51.9,30.06,SSE,150,6.0,6.0,83,0.00,,,0.11,Wunderground v.1.15,2013-04-30 02:40:00,
2013-04-29 22:50:00,56.8,52.0,30.06,SSE,152,6.0,6.0,84,0.00,,,0.11,Wunderground v.1.15,2013-04-30 02:50:00,
2013-04-29 23:00:00,56.7,51.9,30.06,SSE,158,5.0,17.0,84,0.00,,,0.11,Wunderground v.1.15,2013-04-30 03:00:00,
2013-04-29 23:05:00,56.6,52.1,30.06,SE,145,5.0,17.0,85,0.00,,,0.11,Wunderground v.1.15,2013-04-30 03:05:00,
2013-04-29 23:15:00,56.6,52.1,30.05,SE,140,5.0,17.0,85,0.00,,,0.11,Wunderground v.1.15,2013-04-30 03:15:00,
2013-04-29 23:25:00,56.6,52.1,30.05,SE,138,5.0,17.0,85,0.00,,,0.11,Wunderground v.1.15,2013-04-30 03:25:00,
2013-04-29 23:35:00,56.6,52.5,30.05,SSE,165,5.0,17.0,86,0.00,,,0.11,Wunderground v.1.15,2013-04-30 03:35:00,
2013-04-29 23:45:00,56.6,52.1,30.05,SE,137,6.0,17.0,85,0.00,,,0.11,Wunderground v.1.15,2013-04-30 03:45:00,
2013-04-29 23:55:00,56.6,52.5,30.05,SE,128,5.0,17.0,86,0.00,,,0.11,Wunderground v.1.15,2013-04-30 03:55:00,